TIANTONG-1 2

Last updated on Mon Feb 16 2026 00:02:51 GMT+0000 (Coordinated Universal Time)

1 46916U 20082A 26046.56525068 -.00000350 00000+0 00000+0 0 9990 2 46916 0.9809 313.1487 0003514 20.0505 140.7935 1.00274349 19432
UTC large
Height (km)
Speed (km/s)
/
Latitude / Longitude
Inclination (degrees)
Orbital Period (minutes)
Azimuth
Elevation
Range (km)
Doppler Factor

Next 0 passes for location: London (51.5072 / 0.1276)

Sorry there are no passes over London.